Location: Ellierode
(51.8381°N, 10.0571°E)
Time: 21:16:56
(UTC+00:00)

Daily predictions for brighter satellites

Satellite Brightness Start Highest point End
(mag) Time Altitude Azimuth Time Altitude Azimuth Time Altitude Azimuth
SL-16 R/B 4.0 15:42:46 10° N 15:48:13 34° WNW 15:53:40 10° WSW
Cosmos 2098 Rocket 4.2 15:43:55 10° N 15:50:11 76° E 15:57:24 10° SSE
Cosmos 2221 3.7 15:47:20 10° SE 15:50:44 23° E 15:54:09 10° NE
Cosmos 2360 Rocket 4.2 15:54:14 10° N 15:55:41 11° N 15:57:09 10° NNE
CZ-2C R/B 4.3 15:53:41 10° ENE 15:55:43 12° E 15:57:43 10° ESE
CZ-4C R/B 3.5 15:51:03 10° NW 15:56:46 34° NNE 16:03:35 10° E
NOAA 12 4.1 15:53:16 10° SSE 15:58:32 66° ENE 16:03:50 10° N
USA 308 3.5 15:56:51 10° SW 16:00:57 48° SSE 16:05:04 10° ENE
Meteor 1-27 4.4 15:55:48 10° SSW 16:01:23 77° WNW 16:07:02 10° N
Cosmos 1869 3.8 16:01:01 10° SSW 16:04:53 61° WNW 16:08:44 10° N
Okean O Rocket 3.0 16:02:39 10° E 16:05:40 18° ENE 16:08:42 10° NNE
ISS -3.6 16:05:16 10° WSW 16:08:40 77° S 16:11:56 11° E
Cosmos 2322 Rocket 4.1 16:10:27 10° N 16:12:56 13° NNE 16:15:26 10° NE
Cosmos 1464 Rocket 4.2 16:07:05 10° SSE 16:13:13 53° E 16:19:24 10° NNE
YAOGAN 1 4.4 16:13:14 11° ENE 16:14:03 12° NE 16:15:42 10° NNE
Cosmos 1461 2.9 16:10:22 10° SW 16:14:35 85° NW 16:18:38 10° NE
NOAA 6 4.0 16:09:53 10° SSE 16:14:57 62° ENE 16:20:02 10° N
Cosmos 2084 3.9 16:14:02 10° NW 16:18:05 43° NNE 16:22:16 10° ESE
Cosmos 1408 Rocket 3.6 16:14:00 10° N 16:18:17 56° ENE 16:22:34 10° SSE
Cosmos 1271 Rocket 2.7 16:17:09 10° S 16:21:03 80° E 16:25:03 10° NNE
NOSS 2-1 (E) 3.0 16:18:10 10° SSW 16:21:22 58° SE 16:24:04 15° NE
Cosmos 1697 Rocket 3.1 16:17:14 10° NNW 16:22:31 39° NE 16:27:46 10° ESE
Cosmos 1743 Rocket 4.1 16:18:34 10° N 16:22:36 36° ENE 16:26:35 10° SE
GEOS 3 Rocket 3.9 16:18:29 10° ESE 16:23:31 50° NE 16:28:30 10° NW
CZ-4 R/B 3.3 16:24:22 12° NE 16:24:22 12° NE 16:25:29 10° NNE
CZ-4B R/B 3.2 16:19:33 10° S 16:23:42 73° WSW 16:27:41 10° NNW
Cosmos 1980 Rocket 3.1 16:19:20 10° NNW 16:24:09 27° NE 16:28:50 10° E
Cosmos 1937 Rocket 4.2 16:19:53 10° NNW 16:24:38 32° NE 16:29:23 10° ESE
Nadezhda 4 Rocket 4.0 16:19:39 10° N 16:25:56 63° ENE 16:32:12 10° SSE
Lacrosse 5 3.9 16:21:48 10° WNW 16:26:18 31° SW 16:30:45 10° SSE
Cosmos 2333 Rocket 4.3 16:24:35 10° NNW 16:26:28 11° N 16:28:21 10° NNE
SL-16 R/B 3.9 16:24:17 10° NNW 16:27:35 15° NNE 16:29:47 13° NE
USA 267 3.3 16:21:33 12° ENE 16:27:44 85° SSE 16:34:18 10° WSW
deb Kosmos-1763 4.3 16:25:06 10° S 16:28:20 42° ESE 16:30:54 15° NE
Cosmos 1656 3.6 16:23:26 10° NNW 16:28:57 70° ENE 16:34:31 10° SE
CZ-4C R/B 4.2 16:26:13 10° N 16:30:10 49° WNW 16:33:53 10° SW
USA 305 2.9 16:25:59 10° WSW 16:30:12 72° SSE 16:33:22 17° ENE
Cosmos 2237 Rocket 4.4 16:29:09 10° NW 16:31:39 13° NNW 16:34:09 10° N
CZ-2C R/B 3.4 16:27:03 10° S 16:31:59 64° WSW 16:36:47 10° NNW
CZ-4B DEB 4.2 16:28:47 10° SSE 16:34:17 71° ENE 16:39:47 10° NNW
Radarsat 4.5 16:30:05 10° SSE 16:35:16 78° ENE 16:40:30 10° NNW
Cosmos 1340 Rocket 2.9 16:31:16 10° N 16:35:17 54° ENE 16:39:17 10° SSE
Cosmos 1092 Rocket 4.2 16:30:00 10° N 16:36:08 48° ENE 16:42:14 10° SE
USA 229 DEB 3.9 16:30:15 10° NW 16:37:25 69° NE 16:45:06 10° ESE
Cosmos 1891 Rocket 4.5 16:31:16 10° S 16:37:28 85° E 16:43:52 10° N
USA 229 3.9 16:30:20 10° NW 16:37:31 69° NE 16:45:11 10° ESE
Cosmos 2082 Rocket 4.1 16:36:06 10° ESE 16:36:39 11° ESE 16:36:39 11° ESE
Cosmos 990 Rocket 4.0 16:35:11 10° NNW 16:40:24 63° ENE 16:45:32 10° SE
COSMOS 2406 4.5 16:38:18 10° SE 16:42:22 20° E 16:43:56 18° E
AQUARIUS 4.1 16:38:36 10° SSE 16:43:05 89° ENE 16:47:37 10° NNW
Lacrosse 5 rocket 2.0 16:39:36 10° WNW 16:43:11 38° N 16:45:18 21° NE
H-2A R/B 4.3 16:45:36 13° NNE 16:45:36 13° NNE 16:46:29 10° NNE
Cosmos 1602 4.2 16:42:03 10° N 16:45:37 35° ENE 16:49:11 10° SE
USA 276 2.7 16:42:43 10° W 16:45:46 51° SSW 16:47:51 18° ESE
ATLAS 2AS CENTAUR R/B 3.7 16:38:49 10° W 16:46:16 46° NNW 16:52:29 14° NE
Cosmos 1513 Rocket 4.5 16:40:25 10° S 16:46:31 87° W 16:52:46 10° N
SL-16 R/B 4.3 16:43:01 10° WNW 16:46:41 17° NNW 16:50:23 10° NNE
ATLAS CENTAUR R/B 3.7 16:39:41 10° SSW 16:48:12 33° SE 16:50:57 20° E
SJ 16-02 2.8 16:44:59 10° NW 16:49:06 40° WSW 16:53:11 10° S
Cosmos 1933 4.1 16:46:06 10° SSE 16:49:40 30° E 16:51:18 22° NE
PAYLOAD B 4.2 16:44:19 10° SSE 16:49:54 75° ENE 16:55:31 10° NNW
Cosmos 1500 Rocket 3.5 16:48:39 10° N 16:53:09 73° E 16:57:33 10° SSE
Cosmos 2034 Rocket 3.9 16:50:29 10° S 16:56:36 74° E 17:02:46 10° NNE
NOSS 3-1 (A) 4.0 16:53:35 10° NW 17:00:51 88° NE 17:09:28 10° SE
USA 306 2.8 16:57:47 10° WSW 17:02:03 88° NNW 17:04:00 31° ENE
CZ-2D R/B 3.2 16:58:26 10° SSE 17:02:16 90° ESE 17:06:09 10° NNW
NOSS 2-1 (C) 3.4 16:59:23 10° WSW 17:02:33 53° NW 17:04:08 27° NNE
Meteor 1-20 Rocket 4.2 16:57:25 10° NNW 17:03:15 80° ENE 17:09:07 10° SSE
NOSS 3-1 (C) 4.4 16:56:41 10° NW 17:03:56 67° SW 17:12:28 10° SSE
Cosmos 1805 Rocket 3.5 16:59:41 10° N 17:04:00 57° ENE 17:08:15 10° SSE
Cosmos 44 Rocket 4.4 17:01:19 10° NNW 17:05:32 26° NNE 17:06:36 24° NE
Cosmos 1842 Rocket 3.8 17:03:52 10° SSW 17:08:19 75° WNW 17:12:49 10° N
Cosmos 2360 4.1 17:03:28 10° NNW 17:09:13 70° NE 17:14:56 10° SE
Cosmos 1833 Rocket 3.2 17:04:41 10° S 17:09:49 38° ESE 17:11:52 28° ENE
NOSS 2-2 (D) 4.2 17:06:57 10° NW 17:11:36 56° NE 17:15:22 23° ESE
NOSS 2-1 (D) 3.7 17:08:46 10° WSW 17:11:54 45° NW 17:13:12 29° NNE
NOSS 2-2 (E) 4.2 17:08:15 10° NW 17:13:05 66° NE 17:18:12 17° ESE
Cosmos 2219 Rocket 4.2 17:11:29 10° N 17:13:35 12° NNE 17:14:34 11° NNE
PSLV R/B 4.3 17:10:37 10° S 17:14:14 56° W 17:17:54 10° NNW
CZ-4B R/B 3.1 17:09:08 10° SSE 17:14:35 82° ENE 17:19:59 10° NNW
Sich 1 2.9 17:10:57 10° N 17:15:12 58° ENE 17:19:26 10° SSE
USA 307 2.8 17:14:13 10° WSW 17:18:32 82° NNW 17:19:51 43° ENE
ARGOS 3.1 17:13:29 10° SSE 17:18:53 71° ENE 17:24:17 10° NNW
Cosmos 1898 Rocket 3.5 17:13:48 10° NNW 17:19:08 89° WSW 17:24:22 10° SSE
ERBS 2.0 17:15:58 10° WSW 17:19:11 88° SE 17:19:27 73° ENE
MOS 1-B Rocket 3.9 17:14:11 10° NNE 17:19:51 66° ESE 17:26:05 10° S
H-2A R/B 2.2 17:15:21 10° S 17:20:35 75° WSW 17:25:42 10° NNW
Cosmos 1606 4.2 17:17:17 10° SW 17:20:47 36° WNW 17:24:20 10° N
YAOGAN 3 4.4 17:17:27 10° SSE 17:21:48 73° ENE 17:26:10 10° N
Cosmos 1634 Rocket 4.0 17:16:01 10° S 17:22:11 58° E 17:28:23 10° NNE
SL-24 R/B - RUBIN 2 3.8 17:17:39 10° NW 17:22:16 51° NE 17:23:11 43° E
COSMOS 2455 3.8 17:21:14 10° SSE 17:25:52 27° ESE 17:25:52 27° ESE
Landsat 5 3.9 17:27:18 42° ESE 17:27:18 42° ESE 17:30:48 10° S
ATLAS CENTAUR R/B 2.7 17:23:23 10° W 17:27:19 35° NNW 17:29:27 23° NNE
Cosmos 2221 3.7 17:23:59 10° SW 17:28:03 42° WNW 17:32:10 10° N
Cosmos 468 Rocket 3.9 17:23:03 10° S 17:28:08 64° ESE 17:30:21 34° NE
SL-19 R/B 4.4 17:23:31 12° NNE 17:29:01 66° ESE 17:35:22 10° S
CZ-4 R/B 4.3 17:26:20 10° SSE 17:30:27 83° ENE 17:34:37 10° NNW
COSMO-SKYMED 1 2.5 17:29:13 37° NNE 17:30:48 66° ESE 17:35:06 10° S
Meteor 2-16 Rocket 4.4 17:24:52 10° N 17:30:53 57° ENE 17:36:54 10° SSE
Cosmos 2026 Rocket 3.9 17:27:13 10° N 17:33:27 88° W 17:39:33 10° S
SL-08 RB Rocket 3.6 17:32:12 10° SSE 17:36:50 71° ENE 17:41:28 10° N
Cosmos 540 Rocket 3.6 17:31:58 10° S 17:36:50 47° ESE 17:37:03 47° E
CZ-2C R/B 2.4 17:32:51 17° NNE 17:37:00 73° ESE 17:42:10 10° S
deb Chang Zheng 4 3.9 17:32:59 10° S 17:37:15 66° WSW 17:41:35 10° NNW
Cosmos 1500 3.0 17:35:48 10° N 17:39:36 87° E 17:40:05 66° SSE
SJ-11-01 4.4 17:36:02 10° S 17:40:47 78° WSW 17:45:34 10° NNW
USA 308 2.8 17:36:32 10° W 17:40:47 73° NNW 17:41:12 66° NE
Helios 1B 4.4 17:40:04 44° NNE 17:41:25 81° ESE 17:45:45 10° SSW
Okean O Rocket 1.8 17:37:05 10° S 17:41:31 74° WSW 17:46:01 10° NNW
Cosmos 2360 Rocket 3.8 17:38:04 10° NNW 17:41:19 19° NNE 17:41:19 19° NNE
Meteor 2-21 4.5 17:38:50 10° NNW 17:44:58 81° W 17:51:02 10° S
ISS -3.2 17:42:05 10° W 17:44:55 58° W 17:44:55 58° W
CZ-4C R/B 2.8 17:39:41 10° NW 17:46:29 67° NE 17:49:48 37° ESE
YAOGAN 1 2.9 17:50:23 50° N 17:50:23 50° N 17:53:43 10° N
Cosmos 1633 Rocket 4.5 17:46:39 10° N 17:48:36 25° N 17:48:36 25° N
Meteor 1-5 Rocket 4.2 17:48:11 10° N 17:54:11 75° ENE 18:00:09 10° SSE
CZ-4 R/B 3.0 18:00:22 25° N 18:00:22 25° N 18:02:08 10° NNW
Cosmos 2369 3.8 17:52:47 10° NNW 17:58:33 77° WSW 18:02:24 22° SSE
Cosmos 2322 Rocket 3.4 17:53:59 10° NNW 17:57:36 27° NNE 17:57:36 27° NNE
GEOS 3 Rocket 4.4 17:56:54 12° SSE 18:01:34 49° SW 18:06:38 10° NW
NOAA 15 4.5 17:56:53 10° SSE 18:02:12 89° ENE 18:07:32 10° NNW
Cosmos 1782 3.4 17:59:23 10° SSW 18:02:36 54° SW 18:02:36 54° SW
Cosmos 1697 Rocket 3.6 18:01:15 10° NW 18:06:37 47° WSW 18:11:58 10° S
Cosmos 1937 Rocket 4.2 18:01:42 10° NNW 18:06:53 53° WSW 18:12:01 10° S
Cosmos 1980 Rocket 2.2 18:03:06 10° NNW 18:08:49 80° WSW 18:10:40 44° SSE
NOSS 2-2 (C) 4.3 18:04:00 10° NW 18:08:57 76° SW 18:10:59 44° SSE
Cosmos 1763 Rocket 3.8 18:04:49 10° SW 18:09:50 62° WNW 18:11:17 43° N
USA 305 3.5 18:05:58 10° W 18:09:22 52° WNW 18:09:22 52° WNW
USA 267 3.5 18:08:54 46° NE 18:10:38 61° N 18:17:03 10° W
Cosmos 841 Rocket 3.9 18:06:15 10° SSW 18:10:09 50° S 18:10:09 50° S
Cosmos 1666 Rocket 4.0 18:07:41 10° NNW 18:11:32 60° NW 18:11:32 60° NW
Cosmos 2333 Rocket 4.1 18:09:05 10° NNW 18:11:35 18° N 18:11:35 18° N
SL-16 R/B 3.1 18:07:53 10° NNW 18:11:40 34° N 18:11:40 34° N
Cosmos 2237 Rocket 4.5 18:16:33 10° N 18:17:57 11° N 18:17:57 11° N
Cosmos 2082 Rocket 2.9 18:14:53 10° SSW 18:18:33 39° S 18:18:33 39° S
IRS-1C Rocket 4.3 18:23:27 62° NNW 18:23:27 62° NNW 18:27:51 10° NNW
Lacrosse 5 rocket 3.1 18:18:56 10° WNW 18:20:53 27° NW 18:20:53 27° NW
Cosmos 2278 3.6 18:18:53 10° NNW 18:24:39 83° WSW 18:24:47 82° SSW
COSMOS 2406 3.2 18:20:14 10° SSW 18:26:00 84° WNW 18:26:01 84° NW
Cosmos 1818 4.2 18:26:57 10° NW 18:31:01 48° NNW 18:31:01 48° NNW
ATLAS 2AS CENTAUR R/B 3.8 18:32:11 10° WNW 18:39:00 33° N 18:39:54 32° NNE
Cosmos 1833 Rocket 3.5 18:48:15 10° SW 18:53:35 47° NW 18:53:35 47° NW
Cosmos 2266 Rocket 4.3 18:52:35 10° NNW 18:58:09 62° WNW 18:58:09 62° WNW
Cosmos 2219 Rocket 4.4 18:54:58 10° NNW 18:56:17 15° N 18:56:17 15° N
ATLAS CENTAUR R/B 4.3 19:04:23 10° NW 19:05:34 14° NW 19:05:34 14° NW
COSMOS 2455 4.0 19:05:38 10° SW 19:09:04 36° SW 19:09:04 36° SW
ATLAS CENTAUR R/B 4.4 19:13:34 10° WSW 19:16:49 25° W 19:16:49 25° W
Cosmos 2360 Rocket 4.4 19:21:39 10° NNW 19:23:05 18° NNW 19:23:05 18° NNW
CZ-4C R/B 3.7 19:28:18 10° NW 19:35:02 46° WSW 19:35:02 46° WSW
Cosmos 2322 Rocket 4.4 19:37:51 10° NW 19:39:25 19° NW 19:39:25 19° NW
